KF5JED-13 Weather Reports


time (UTC)temp
C
wind
direction
speed
KPH
gust
KPH
rain 1hr
cm
rain 24hr
cm
rain mn
cm
humidity
%
barometer
mb
20260508142801 17 211 27.4 29.0 0.00 0.00 0.00 58 1012.8
20260508142258 18 215 22.5 27.4 0.00 0.00 0.00 57 1013.0
20260508141754 17 199 17.7 24.1 0.00 0.00 0.00 58 1013.1
20260508141251 17 218 6.4 20.9 0.00 0.00 0.00 61 1013.3
20260508140749 17 229 6.4 9.7 0.00 0.00 0.00 61 1013.5
20260508140246 16 234 4.8 8.0 0.00 0.00 0.00 62 1013.2
20260508135741 16 219 6.4 6.4 0.00 0.00 0.00 63 1013.3
20260508135238 15 296 3.2 6.4 0.00 0.00 0.00 64 1013.8
20260508134733 15 282 4.8 9.7 0.00 0.00 0.00 64 1013.7
20260508134232 15 0 1.6 8.0 0.00 0.00 0.00 65 1013.3
20260508133727 15 210 6.4 6.4 0.00 0.00 0.00 65 1013.1
20260508133225 14 292 6.4 6.4 0.00 0.00 0.00 66 1013.3
20260508132722 13 142 1.6 9.7 0.00 0.00 0.00 68 1012.9
20260508132220 13 208 3.2 6.4 0.00 0.00 0.00 69 1012.9
20260508131715 13 207 3.2 4.8 0.00 0.00 0.00 70 1012.7
20260508131212 12 215 0.0 4.8 0.00 0.00 0.00 71 1013.0
20260508130708 12 201 4.8 6.4 0.00 0.00 0.00 72 1013.0
20260508130205 12 188 6.4 6.4 0.00 0.00 0.00 73 1012.9
20260508125655 11 277 1.6 9.7 0.00 0.00 0.00 74 1013.1
20260508125152 11 199 3.2 9.7 0.00 0.00 0.00 75 1012.9
20260508124650 11 190 9.7 14.5 0.00 0.00 0.00 76 1012.5
20260508124147 11 181 9.7 12.9 0.00 0.00 0.00 77 1012.5
20260508123646 10 200 9.7 9.7 0.00 0.00 0.00 78 1012.7
20260508123143 10 202 4.8 8.0 0.00 0.00 0.00 78 1012.7
20260508122639 10 211 3.2 6.4 0.00 0.00 0.00 79 1012.6
20260508122136 10 209 8.0 9.7 0.00 0.00 0.00 80 1012.6
20260508121634 9 180 8.0 12.9 0.00 0.00 0.00 80 1012.6
20260508121132 9 201 11.3 14.5 0.00 0.00 0.00 80 1012.5
20260508120629 9 193 6.4 14.5 0.00 0.00 0.00 81 1012.5
20260508120127 8 199 9.7 9.7 0.00 0.00 0.00 82 1012.3
20260508115625 8 179 6.4 8.0 0.00 0.00 0.00 80 1012.3
20260508115121 9 194 4.8 8.0 0.00 0.00 0.00 80 1012.3
20260508114618 10 207 9.7 11.3 0.00 0.00 0.00 79 1012.3
20260508114114 10 202 8.0 12.9 0.00 0.00 0.00 78 1012.6
20260508113612 10 208 8.0 17.7 0.00 0.00 0.00 77 1012.2
20260508113110 10 202 12.9 22.5 0.00 0.00 0.00 77 1012.1
20260508112605 10 199 9.7 17.7 0.00 0.00 0.00 76 1012.2
20260508112103 11 202 16.1 17.7 0.00 0.00 0.00 76 1012.3
20260508111600 11 210 14.5 20.9 0.00 0.00 0.00 75 1012.5
20260508111057 11 195 14.5 19.3 0.00 0.00 0.00 74 1012.5
20260508110555 12 198 11.3 20.9 0.00 0.00 0.00 73 1012.6
20260508110050 12 205 14.5 19.3 0.00 0.00 0.00 73 1012.3
20260508105545 12 210 9.7 20.9 0.00 0.00 0.00 72 1012.3
20260508105043 12 217 14.5 20.9 0.00 0.00 0.00 72 1012.6
20260508104541 12 229 14.5 19.3 0.00 0.00 0.00 72 1012.5
20260508104037 12 227 16.1 19.3 0.00 0.00 0.00 72 1012.7
20260508103534 12 226 12.9 20.9 0.00 0.00 0.00 72 1012.5
20260508103031 12 223 12.9 17.7 0.00 0.00 0.00 71 1012.6
20260508102529 12 208 11.3 17.7 0.00 0.00 0.00 71 1012.6
20260508102027 12 207 11.3 17.7 0.00 0.00 0.00 71 1012.6
20260508101524 12 210 12.9 20.9 0.00 0.00 0.00 70 1012.7
20260508101021 12 207 9.7 16.1 0.00 0.00 0.00 70 1012.7
20260508100519 12 217 12.9 20.9 0.00 0.00 0.00 69 1012.6
20260508100016 12 202 19.3 20.9 0.00 0.00 0.00 69 1013.1
20260508095513 12 207 12.9 22.5 0.00 0.00 0.00 69 1012.7
20260508095009 12 206 12.9 16.1 0.00 0.00 0.00 68 1012.8
20260508094507 12 217 11.3 16.1 0.00 0.00 0.00 68 1013.2
20260508094003 12 215 17.7 19.3 0.00 0.00 0.00 68 1013.0
20260508093500 12 207 16.1 17.7 0.00 0.00 0.00 67 1013.0
20260508092958 12 210 16.1 19.3 0.00 0.00 0.00 68 1013.0
20260508092455 12 215 14.5 22.5 0.00 0.00 0.00 67 1013.1
20260508091954 12 205 14.5 20.9 0.00 0.00 0.00 66 1013.1
20260508091450 13 210 19.3 27.4 0.00 0.00 0.00 65 1013.2
20260508090948 13 207 20.9 30.6 0.00 0.00 0.00 65 1013.0
20260508090446 12 213 22.5 30.6 0.00 0.00 0.00 65 1013.1
20260508085941 12 213 22.5 29.0 0.00 0.00 0.00 65 1013.0
20260508085438 12 206 17.7 25.7 0.00 0.00 0.00 65 1012.8
20260508084935 12 198 16.1 25.7 0.00 0.00 0.00 64 1013.0
20260508084432 12 197 19.3 27.4 0.00 0.00 0.00 64 1013.1
20260508083930 12 209 22.5 27.4 0.00 0.00 0.00 63 1013.1
20260508083426 12 209 22.5 33.8 0.00 0.00 0.00 63 1013.1
20260508082921 13 212 24.1 32.2 0.00 0.00 0.00 62 1012.9
20260508082418 12 216 27.4 32.2 0.00 0.00 0.00 63 1013.1
20260508081916 12 208 19.3 22.5 0.00 0.00 0.00 64 1012.8
20260508081413 11 198 16.1 17.7 0.00 0.00 0.00 64 1012.9
20260508080909 11 193 16.1 17.7 0.00 0.00 0.00 63 1013.1
20260508080408 11 196 14.5 16.1 0.00 0.00 0.00 62 1013.2
20260508075903 12 180 11.3 17.7 0.00 0.00 0.00 61 1013.2
20260508075401 12 206 11.3 19.3 0.00 0.00 0.00 60 1013.3
20260508074859 12 193 11.3 19.3 0.00 0.00 0.00 59 1013.3
20260508074355 12 199 14.5 17.7 0.00 0.00 0.00 58 1013.3
20260508073852 12 201 11.3 17.7 0.00 0.00 0.00 57 1013.2
20260508073350 12 191 14.5 20.9 0.00 0.00 0.00 56 1013.1
20260508072846 12 212 11.3 20.9 0.00 0.00 0.00 56 1013.3
20260508072343 12 205 12.9 22.5 0.00 0.00 0.00 55 1013.2
20260508071840 12 208 16.1 17.7 0.00 0.00 0.00 54 1013.3
20260508071339 13 205 16.1 24.1 0.00 0.00 0.00 53 1013.0
20260508070837 13 203 16.1 24.1 0.00 0.00 0.00 52 1013.1
20260508070334 13 198 9.7 25.7 0.00 0.00 0.00 52 1013.2
20260508065831 12 195 17.7 20.9 0.00 0.00 0.00 53 1013.5
20260508065329 12 204 16.1 20.9 0.00 0.00 0.00 52 1013.3
20260508064827 12 196 11.3 17.7 0.00 0.00 0.00 52 1013.6
20260508064324 12 193 14.5 19.3 0.00 0.00 0.00 52 1013.5
20260508063822 12 201 9.7 17.7 0.00 0.00 0.00 52 1013.7
20260508063320 12 192 9.7 19.3 0.00 0.00 0.00 53 1013.6
20260508062817 12 188 14.5 14.5 0.00 0.00 0.00 53 1013.6
20260508062314 12 168 11.3 14.5 0.00 0.00 0.00 54 1013.6
20260508061811 12 180 8.0 9.7 0.00 0.00 0.00 54 1013.5
20260508061309 12 170 8.0 12.9 0.00 0.00 0.00 53 1013.7
20260508060804 12 164 12.9 14.5 0.00 0.00 0.00 54 1013.9
20260508060303 12 169 8.0 11.3 0.00 0.00 0.00 53 1013.8
20260508055757 12 165 6.4 11.3 0.00 0.00 0.00 52 1013.8
20260508055255 12 161 9.7 9.7 0.00 0.00 0.00 52 1013.8
20260508054751 12 166 8.0 12.9 0.00 0.00 0.00 51 1013.9
20260508054249 12 167 9.7 11.3 0.00 0.00 0.00 50 1013.9
20260508053746 13 178 9.7 12.9 0.00 0.00 0.00 49 1014.0
20260508053243 13 170 14.5 16.1 0.00 0.00 0.00 48 1014.1
20260508052740 13 188 12.9 17.7 0.00 0.00 0.00 47 1013.8
20260508052238 14 178 12.9 17.7 0.00 0.00 0.00 47 1013.9
20260508051733 14 189 9.7 14.5 0.00 0.00 0.00 46 1014.1
20260508051229 15 173 12.9 17.7 0.00 0.00 0.00 45 1014.1
20260508050726 15 172 9.7 17.7 0.00 0.00 0.00 45 1014.3
20260508050223 15 183 12.9 17.7 0.00 0.00 0.00 44 1014.2
20260508045718 15 176 12.9 17.7 0.00 0.00 0.00 44 1014.0
20260508045217 15 179 14.5 17.7 0.00 0.00 0.00 43 1014.1
20260508044714 15 171 14.5 16.1 0.00 0.00 0.00 43 1014.2
20260508044210 15 168 14.5 20.9 0.00 0.00 0.00 43 1014.2
20260508043706 15 165 14.5 14.5 0.00 0.00 0.00 43 1014.2
20260508043204 15 171 12.9 17.7 0.00 0.00 0.00 42 1014.5
20260508042700 15 155 11.3 14.5 0.00 0.00 0.00 42 1014.2
20260508042158 15 166 9.7 14.5 0.00 0.00 0.00 42 1014.2
20260508041654 15 161 11.3 16.1 0.00 0.00 0.00 41 1014.3
20260508041151 16 153 12.9 16.1 0.00 0.00 0.00 41 1014.2
20260508040647 16 160 14.5 14.5 0.00 0.00 0.00 40 1014.1
20260508040145 16 167 12.9 16.1 0.00 0.00 0.00 40 1014.2
20260508035642 16 166 11.3 16.1 0.00 0.00 0.00 40 1014.2
20260508035140 16 162 11.3 14.5 0.00 0.00 0.00 40 1014.2
20260508034636 16 173 9.7 14.5 0.00 0.00 0.00 40 1014.2
20260508034133 16 159 11.3 19.3 0.00 0.00 0.00 38 1014.0
20260508033630 17 155 17.7 20.9 0.00 0.00 0.00 38 1014.0
20260508033129 17 152 11.3 17.7 0.00 0.00 0.00 38 1014.2
20260508032625 17 154 14.5 17.7 0.00 0.00 0.00 38 1014.1
20260508032122 17 155 12.9 17.7 0.00 0.00 0.00 38 1014.1
20260508031619 17 162 12.9 16.1 0.00 0.00 0.00 37 1014.1
20260508031116 17 160 11.3 17.7 0.00 0.00 0.00 36 1013.8
20260508030612 17 150 11.3 17.7 0.00 0.00 0.00 36 1013.9
20260508030110 17 154 12.9 17.7 0.00 0.00 0.00 36 1013.9
20260508025606 16 156 9.7 12.9 0.00 0.00 0.00 37 1013.8
20260508025103 16 159 9.7 14.5 0.00 0.00 0.00 36 1013.9
20260508024559 16 153 12.9 14.5 0.00 0.00 0.00 35 1013.9
20260508024056 17 167 9.7 14.5 0.00 0.00 0.00 34 1013.6
20260508023552 17 164 9.7 17.7 0.00 0.00 0.00 33 1013.8
20260508023050 16 154 9.7 9.7 0.00 0.00 0.00 35 1013.6
20260508022546 17 151 9.7 11.3 0.00 0.00 0.00 33 1013.5
20260508022043 17 148 9.7 11.3 0.00 0.00 0.00 33 1013.7
20260508021539 16 154 8.0 9.7 0.00 0.00 0.00 34 1013.6
20260508021034 16 153 6.4 8.0 0.00 0.00 0.00 32 1013.5
20260508020532 17 156 3.2 6.4 0.00 0.00 0.00 31 1013.3
20260508020030 17 150 4.8 6.4 0.00 0.00 0.00 31 1013.6
20260508015527 17 156 4.8 6.4 0.00 0.00 0.00 31 1013.5
20260508015024 18 158 6.4 6.4 0.00 0.00 0.00 30 1013.5
20260508014521 19 148 6.4 9.7 0.00 0.00 0.00 28 1013.5
20260508014017 18 139 6.4 6.4 0.00 0.00 0.00 29 1013.2
20260508013513 20 178 4.8 6.4 0.00 0.00 0.00 29 1013.1
20260508013010 21 193 6.4 9.7 0.00 0.00 0.00 27 1013.2
20260508012507 21 200 6.4 14.5 0.00 0.00 0.00 27 1013.2
20260508012004 21 212 8.0 14.5 0.00 0.00 0.00 26 1013.1
20260508011503 22 209 11.3 14.5 0.00 0.00 0.00 26 1013.0
20260508010959 22 211 12.9 17.7 0.00 0.00 0.00 26 1013.3
20260508010451 22 211 16.1 27.4 0.00 0.00 0.00 25 1013.1
20260508005948 22 194 22.5 24.1 0.00 0.00 0.00 25 1013.2
20260508005445 23 206 19.3 25.7 0.00 0.00 0.00 25 1013.1
20260508004941 23 218 11.3 17.7 0.00 0.00 0.00 25 1013.1
20260508004437 23 229 11.3 17.7 0.00 0.00 0.00 25 1013.1
20260508003934 23 219 12.9 22.5 0.00 0.00 0.00 25 1013.1
20260508003431 23 199 22.5 29.0 0.00 0.00 0.00 24 1013.1
20260508002928 23 207 17.7 20.9 0.00 0.00 0.00 24 1013.1
20260508002425 23 223 9.7 24.1 0.00 0.00 0.00 25 1013.1
20260508001921 23 197 12.9 30.6 0.00 0.00 0.00 25 1013.1
20260508001417 23 213 14.5 24.1 0.00 0.00 0.00 25 1013.0
20260508000914 23 274 4.8 22.5 0.00 0.00 0.00 25 1013.0
20260508000412 24 212 9.7 14.5 0.00 0.00 0.00 24 1013.1
20260507235907 24 225 17.7 25.7 0.00 0.00 0.00 23 1013.1
20260507235404 23 199 9.7 27.4 0.00 0.00 0.00 24 1013.3
20260507234901 24 214 11.3 19.3 0.00 0.00 0.00 24 1013.0
20260507234359 24 235 6.4 17.7 0.00 0.00 0.00 24 1013.0
20260507233854 24 212 14.5 17.7 0.00 0.00 0.00 23 1012.9
20260507233351 24 218 20.9 32.2 0.00 0.00 0.00 23 1013.0
20260507232849 24 205 20.9 24.1 0.00 0.00 0.00 23 1012.9
20260507232345 24 213 24.1 27.4 0.00 0.00 0.00 23 1013.1
20260507231843 24 205 17.7 22.5 0.00 0.00 0.00 23 1013.2
20260507231340 25 287 3.2 9.7 0.00 0.00 0.00 24 1013.2
20260507230836 25 210 12.9 12.9 0.00 0.00 0.00 23 1013.2
20260507230333 24 235 17.7 22.5 0.00 0.00 0.00 23 1013.3
20260507225833 23 223 16.1 33.8 0.00 0.00 0.00 24 1013.3
20260507225329 24 223 14.5 14.5 0.00 0.00 0.00 24 1013.5
20260507224826 24 277 6.4 17.7 0.00 0.00 0.00 25 1013.5
20260507224323 24 275 6.4 14.5 0.00 0.00 0.00 23 1013.5
20260507223819 24 314 3.2 19.3 0.00 0.00 0.00 24 1013.5
20260507223315 24 255 11.3 17.7 0.00 0.00 0.00 24 1013.7
20260507222812 24 284 3.2 19.3 0.00 0.00 0.00 24 1013.6
20260507222308 24 241 4.8 14.5 0.00 0.00 0.00 24 1013.7
20260507221806 24 240 11.3 22.5 0.00 0.00 0.00 24 1013.7
20260507221302 23 315 4.8 11.3 0.00 0.00 0.00 24 1013.8
20260507220758 23 231 20.9 25.7 0.00 0.00 0.00 25 1013.8
20260507220257 23 212 17.7 24.1 0.00 0.00 0.00 25 1013.7
20260507215752 23 225 3.2 11.3 0.00 0.00 0.00 25 1013.8
20260507215250 23 221 14.5 22.5 0.00 0.00 0.00 25 1014.1
20260507214747 23 207 22.5 33.8 0.00 0.00 0.00 25 1014.2
20260507214244 23 253 6.4 12.9 0.00 0.00 0.00 26 1014.3
20260507213739 23 195 6.4 30.6 0.00 0.00 0.00 26 1014.5
20260507213237 22 223 19.3 30.6 0.00 0.00 0.00 26 1014.3
20260507212733 23 227 17.7 29.0 0.00 0.00 0.00 25 1014.7
20260507212230 22 221 22.5 30.6 0.00 0.00 0.00 24 1014.6
20260507211726 23 294 4.8 12.9 0.00 0.00 0.00 25 1014.7
20260507211222 22 232 8.0 19.3 0.00 0.00 0.00 26 1014.8
20260507210720 22 208 14.5 24.1 0.00 0.00 0.00 24 1015.0
20260507210216 22 286 9.7 27.4 0.00 0.00 0.00 26 1014.7
20260507205713 22 259 12.9 19.3 0.00 0.00 0.00 27 1015.0
20260507205209 22 216 9.7 24.1 0.00 0.00 0.00 27 1015.0
20260507204706 22 212 17.7 24.1 0.00 0.00 0.00 26 1015.1
20260507204204 22 231 8.0 11.3 0.00 0.00 0.00 28 1015.2
20260507203702 22 228 14.5 24.1 0.00 0.00 0.00 27 1015.7
20260507203159 22 190 16.1 19.3 0.00 0.00 0.00 29 1015.5
20260507202654 22 293 8.0 27.4 0.00 0.00 0.00 31 1015.7
20260507202150 21 321 6.4 24.1 0.00 0.00 0.00 29 1015.9
20260507201645 22 243 16.1 24.1 0.00 0.00 0.00 29 1015.8
20260507201143 21 175 9.7 20.9 0.00 0.00 0.00 32 1015.9
20260507200639 22 208 24.1 24.1 0.00 0.00 0.00 30 1016.0
20260507200135 21 170 9.7 24.1 0.00 0.00 0.00 31 1016.2
20260507195632 20 257 9.7 24.1 0.00 0.00 0.00 33 1016.3
20260507195129 21 217 8.0 9.7 0.00 0.00 0.00 32 1016.2
20260507194626 21 221 14.5 24.1 0.00 0.00 0.00 32 1016.7
20260507194121 20 192 6.4 22.5 0.00 0.00 0.00 33 1016.7
20260507193618 21 219 22.5 29.0 0.00 0.00 0.00 32 1016.9
20260507193115 20 232 3.2 14.5 0.00 0.00 0.00 35 1016.7
20260507192612 20 203 19.3 24.1 0.00 0.00 0.00 34 1017.0
20260507192109 20 233 16.1 19.3 0.00 0.00 0.00 35 1016.9
20260507191604 20 239 12.9 33.8 0.00 0.00 0.00 38 1017.0
20260507191101 20 297 8.0 12.9 0.00 0.00 0.00 37 1017.2
20260507190558 20 223 17.7 24.1 0.00 0.00 0.00 37 1017.2
20260507190057 20 215 8.0 22.5 0.00 0.00 0.00 39 1017.3
20260507185555 19 305 4.8 17.7 0.00 0.00 0.00 40 1017.2
20260507185051 18 287 11.3 17.7 0.00 0.00 0.00 42 1017.6
20260507184550 20 249 8.0 16.1 0.00 0.00 0.00 41 1017.6
20260507184047 19 298 8.0 30.6 0.00 0.00 0.00 40 1017.7
20260507183543 19 207 19.3 29.0 0.00 0.00 0.00 40 1017.8
20260507183040 18 241 6.4 17.7 0.00 0.00 0.00 42 1018.1
20260507182536 17 227 12.9 37.0 0.00 0.00 0.00 45 1018.1
20260507182032 18 237 8.0 22.5 0.00 0.00 0.00 44 1018.2
20260507181530 18 208 22.5 32.2 0.00 0.00 0.00 43 1018.4
20260507181026 17 228 6.4 27.4 0.00 0.00 0.00 45 1018.5
20260507180522 18 226 24.1 29.0 0.00 0.00 0.00 45 1018.6
20260507180019 17 319 6.4 16.1 0.00 0.00 0.00 46 1018.7
20260507175515 17 217 11.3 25.7 0.00 0.00 0.00 45 1018.7
20260507175013 17 227 19.3 24.1 0.00 0.00 0.00 46 1018.9
20260507174510 17 233 14.5 32.2 0.00 0.00 0.00 47 1018.8
20260507174008 16 233 20.9 27.4 0.00 0.00 0.00 48 1019.1
20260507173504 16 220 22.5 30.6 0.00 0.00 0.00 49 1019.1
20260507173002 16 300 9.7 20.9 0.00 0.00 0.00 50 1019.5
20260507172458 16 237 6.4 17.7 0.00 0.00 0.00 49 1019.2
20260507171954 16 250 9.7 24.1 0.00 0.00 0.00 51 1019.5
20260507171450 16 249 3.2 17.7 0.00 0.00 0.00 52 1019.5
20260507170948 15 228 19.3 22.5 0.00 0.00 0.00 52 1019.5
20260507170444 15 220 16.1 33.8 0.00 0.00 0.00 52 1019.6
20260507165940 15 203 12.9 24.1 0.00 0.00 0.00 52 1019.7
20260507165437 15 271 3.2 22.5 0.00 0.00 0.00 53 1019.8
20260507164932 15 231 9.7 24.1 0.00 0.00 0.00 54 1019.8
20260507164430 15 223 22.5 27.4 0.00 0.00 0.00 53 1019.8
20260507163926 13 206 8.0 33.8 0.00 0.00 0.00 56 1019.9
20260507163424 15 204 29.0 37.0 0.00 0.00 0.00 54 1019.9
20260507162921 14 226 24.1 24.1 0.00 0.00 0.00 54 1020.1
20260507162416 15 239 11.3 22.5 0.00 0.00 0.00 54 1020.1
20260507161914 13 202 14.5 24.1 0.00 0.00 0.00 57 1020.2
20260507161409 13 209 17.7 22.5 0.00 0.00 0.00 57 1020.0
20260507160906 13 209 16.1 30.6 0.00 0.00 0.00 55 1020.0
20260507160402 13 228 16.1 27.4 0.00 0.00 0.00 58 1020.2
20260507155858 13 227 17.7 20.9 0.00 0.00 0.00 59 1020.2
20260507155354 12 274 8.0 17.7 0.00 0.00 0.00 64 1020.2
20260507154851 12 238 17.7 24.1 0.00 0.00 0.00 64 1020.4
20260507154348 11 238 8.0 19.3 0.00 0.00 0.00 65 1020.4
20260507153932 11 199 20.9 30.6 0.00 0.00 0.00 64 1020.2
20260507153846 11 199 20.9 30.6 0.00 0.00 0.00 64 1020.2
20260507153342 11 208 12.9 24.1 0.00 0.00 0.00 66 1020.4
20260507153139 11 223 6.4 12.9 0.00 0.00 0.00 68 1020.5
20260507152838 11 223 6.4 12.9 0.00 0.00 0.00 68 1020.5
20260507152334 11 229 11.3 17.7 0.00 0.00 0.00 68 1020.5
20260507152240 11 210 6.4 11.3 0.00 0.00 0.00 69 1020.6
20260507151831 11 210 6.4 11.3 0.00 0.00 0.00 69 1020.6
20260507151327 10 189 3.2 11.3 0.00 0.00 0.00 72 1020.8
20260507150825 10 308 1.6 17.7 0.00 0.00 0.00 74 1020.5
20260507150321 10 239 4.8 11.3 0.00 0.00 0.00 75 1020.7
20260507145817 10 224 8.0 8.0 0.00 0.00 0.00 76 1020.7
20260507145313 8 204 4.8 17.7 0.00 0.00 0.00 78 1020.8
20260507144811 8 223 17.7 20.9 0.00 0.00 0.00 80 1020.8
20260507144308 8 229 6.4 11.3 0.00 0.00 0.00 81 1020.8
20260507143804 8 331 8.0 17.7 0.00 0.00 0.00 84 1020.8
20260507143302 8 314 6.4 12.9 0.00 0.00 0.00 85 1021.0